Weather History for West Palm Beach, FL

Change the Weather History Date:

Thursday, February 14, 2013

  Actual Average Record
Temperature  
Mean Temperature 70 °F 68 °F  
Max Temperature 76 °F 77 °F 89 °F (1948)
Min Temperature 63 °F 59 °F 28 °F (1899)
Degree Days  
Heating Degree Days 0 2  
Month to date heating degree days 11 28  
Since 1 July heating degree days 59 185  
Cooling Degree Days 5 5  
Month to date cooling degree days 70 58  
Year to date cooling degree days 291 166  
Growing Degree Days 18 (Base 50)    
Moisture  
Dew Point 66 °F    
Average Humidity 88    
Maximum Humidity 97    
Minimum Humidity 78    
Precipitation  
Precipitation 1.59 in 0.10 in 2.31 in (1895)
Month to date precipitation 1.65 1.34  
Year to date precipitation 2.44 4.47  
Snow  
Snow 0.00 in - - ()
Month to date snowfall 0.0  
Since 1 July snowfall 0.0  
Snow Depth 0.00 in    
Sea Level Pressure  
Sea Level Pressure 29.96 in    
Wind  
Wind Speed 8 mph (North)    
Max Wind Speed 22 mph    
Max Gust Speed 29 mph    
Visibility 7 miles    
Events Fog , Rain , Thunderstorm    
T = Trace of Precipitation, MM = Missing Value Source: NWS Daily Summary

Daily Weather History Graph

Daily Weather History Graph

Search for Another Location

Airport:

Trip Planner

Search our weather history database for the weather conditions in past years. The results will help you decide how hot, cold, wet, or windy it might be!

Date:

Astronomy

Feb. 14, 2013 Rise Set
Actual Time 6:57 AM EST 6:12 PM EST
Civil Twilight 6:33 AM EST 6:36 PM EST
Nautical Twilight 6:06 AM EST 7:03 PM EST
Astronomical Twilight 5:39 AM EST 7:30 PM EST
Moon 9:29 AM EST (2/14) 10:39 PM EST (2/14)
Length of Visible Light 12h 02m
Length of Day
11h 15m
Waxing Crescent, 21% of the Moon is Illuminated
Feb 14
Waxing Crescent
Feb 17
First Quarter
Feb 25
Full
Mar 4
Last Quarter
Mar 11
New

Hourly Weather History & Observations

Time (EST) Temp. Dew Point Humidity Pressure Visibility Wind Dir Wind Speed Gust Speed Precip Events Conditions
12:53 AM 72.0 °F 69.1 °F 91% 29.96 in 10.0 mi SSW 5.8 mph - N/A   Scattered Clouds
1:53 AM 69.1 °F 66.9 °F 93% 29.95 in 10.0 mi Calm Calm - N/A   Scattered Clouds
2:53 AM 69.1 °F 68.0 °F 96% 29.94 in 9.0 mi NW 4.6 mph - N/A   Mostly Cloudy
3:00 AM 69.8 °F 68.0 °F 94% 29.94 in 5.0 mi NW 9.2 mph - N/A   Overcast
3:53 AM 71.1 °F 69.1 °F 93% 29.94 in 9.0 mi NNW 3.5 mph - N/A   Overcast
4:05 AM 71.6 °F 69.8 °F 94% 29.94 in 10.0 mi North 3.5 mph - N/A   Overcast
4:53 AM 69.1 °F 64.9 °F 87% 29.95 in 9.0 mi NNW 9.2 mph - 0.00 in Rain Light Rain
5:10 AM 68.0 °F 64.4 °F 88% 29.94 in 10.0 mi North 9.2 mph - 0.00 in   Mostly Cloudy
5:32 AM 68.0 °F 64.4 °F 88% 29.95 in 10.0 mi North 5.8 mph - 0.00 in   Mostly Cloudy
5:53 AM 69.1 °F 64.0 °F 84% 29.95 in 10.0 mi North 5.8 mph - 0.00 in   Overcast
6:53 AM 69.1 °F 63.0 °F 81% 29.96 in 10.0 mi North 4.6 mph - N/A   Mostly Cloudy
7:41 AM 69.8 °F 64.4 °F 83% 29.98 in 10.0 mi NNW 4.6 mph - N/A   Overcast
7:53 AM 70.0 °F 64.0 °F 81% 29.98 in 10.0 mi North 6.9 mph - N/A   Overcast
8:53 AM 69.1 °F 64.0 °F 84% 29.99 in 10.0 mi North 6.9 mph - N/A   Overcast
9:53 AM 68.0 °F 66.0 °F 93% 30.01 in 3.0 mi Calm Calm - 0.05 in Rain Rain
10:07 AM 69.8 °F 66.2 °F 88% 30.01 in 10.0 mi Calm Calm - 0.02 in Rain Light Rain
10:27 AM 69.8 °F 66.2 °F 88% 30.00 in 2.0 mi NE 3.5 mph - 0.14 in Rain Heavy Rain
10:31 AM 69.8 °F 66.2 °F 88% 30.00 in 0.8 mi NE 3.5 mph - 0.22 in Rain Heavy Rain
10:35 AM 69.8 °F 66.2 °F 88% 30.00 in 1.2 mi NE 4.6 mph - 0.24 in Rain Heavy Rain
10:43 AM 69.8 °F 66.2 °F 88% 30.01 in 2.5 mi NE 3.5 mph - 0.24 in Rain Heavy Rain
10:53 AM 69.1 °F 66.9 °F 93% 30.00 in 2.0 mi NE 4.6 mph - 0.26 in Rain Heavy Rain
11:01 AM 69.8 °F 66.2 °F 88% 29.99 in 4.0 mi ENE 5.8 mph - 0.00 in Rain Light Rain
11:13 AM 69.8 °F 66.2 °F 88% 29.99 in 6.0 mi ENE 4.6 mph - 0.00 in Rain Light Rain
11:37 AM 69.8 °F 68.0 °F 94% 29.99 in 6.0 mi NNE 3.5 mph - 0.01 in Rain Light Rain
11:53 AM 70.0 °F 68.0 °F 93% 29.99 in 10.0 mi NNW 6.9 mph - 0.02 in Rain Light Rain
11:58 AM 69.8 °F 68.0 °F 94% 29.99 in 10.0 mi WNW 8.1 mph - 0.00 in Rain Light Rain
12:03 PM 69.8 °F 68.0 °F 94% 29.98 in 1.0 mi Calm Calm - 0.04 in Rain Heavy Rain
12:12 PM 69.8 °F 68.0 °F 94% 29.97 in 6.0 mi Calm Calm - 0.08 in Rain Light Rain
12:27 PM 71.6 °F 68.0 °F 88% 29.96 in 10.0 mi Calm Calm - 0.08 in   Mostly Cloudy
12:53 PM 72.0 °F 68.0 °F 87% 29.95 in 10.0 mi East 3.5 mph - 0.08 in   Overcast
1:13 PM 73.4 °F 68.0 °F 83% 29.94 in 10.0 mi East 4.6 mph - N/A   Mostly Cloudy
1:53 PM 75.9 °F 69.1 °F 79% 29.91 in 10.0 mi ESE 4.6 mph - N/A   Mostly Cloudy
2:49 PM 75.2 °F 69.8 °F 83% 29.90 in 10.0 mi NE 11.5 mph - N/A   Mostly Cloudy
2:53 PM 75.0 °F 68.0 °F 79% 29.90 in 10.0 mi ENE 6.9 mph - N/A   Mostly Cloudy
3:30 PM 73.4 °F 68.0 °F 83% 29.89 in 10.0 mi ENE 12.7 mph - N/A   Overcast
3:53 PM 73.0 °F 68.0 °F 84% 29.88 in 10.0 mi NE 15.0 mph - 0.00 in Rain Light Rain
4:04 PM 71.6 °F 69.8 °F 94% 29.88 in 10.0 mi NNE 11.5 mph - 0.00 in Rain , Thunderstorm Light Thunderstorms and Rain
4:11 PM 71.6 °F 69.8 °F 94% 29.88 in 2.0 mi NNE 10.4 mph - 0.03 in Rain , Thunderstorm Thunderstorms and Rain
4:16 PM 71.6 °F 69.8 °F 94% 29.88 in 1.2 mi NNE 10.4 mph - 0.08 in Rain , Thunderstorm Heavy Thunderstorms and Rain
4:28 PM 71.6 °F 69.8 °F 94% 29.89 in 0.8 mi North 4.6 mph - 0.15 in Rain , Thunderstorm Heavy Thunderstorms and Rain
4:36 PM 69.8 °F 68.0 °F 94% 29.90 in 0.8 mi NW 15.0 mph 18.4 mph 0.31 in Rain , Thunderstorm Heavy Thunderstorms and Rain
4:43 PM 69.8 °F 66.2 °F 88% 29.92 in 0.2 mi West 9.2 mph - 0.40 in Fog , Rain , Thunderstorm Heavy Thunderstorms and Rain
4:53 PM 69.1 °F 66.9 °F 93% 29.91 in 0.2 mi North 8.1 mph - 0.78 in Fog , Rain , Thunderstorm Heavy Thunderstorms and Rain
4:58 PM 69.8 °F 66.2 °F 88% 29.90 in 7.0 mi NNW 6.9 mph - 0.01 in Rain Light Rain
5:03 PM 69.8 °F 68.0 °F 94% 29.90 in 10.0 mi North 8.1 mph - 0.01 in Rain Light Rain
5:24 PM 69.8 °F 68.0 °F 94% 29.90 in 10.0 mi NNW 12.7 mph - 0.01 in   Mostly Cloudy
5:31 PM 69.8 °F 68.0 °F 94% 29.91 in 10.0 mi North 18.4 mph 21.9 mph 0.01 in Rain Light Rain
5:37 PM 69.8 °F 66.2 °F 88% 29.92 in 1.2 mi North 11.5 mph 21.9 mph 0.02 in Rain Heavy Rain
5:46 PM 68.0 °F 66.2 °F 94% 29.92 in 7.0 mi North 15.0 mph - 0.05 in Rain Light Rain
5:53 PM 68.0 °F 66.0 °F 93% 29.93 in 10.0 mi North 11.5 mph - 0.05 in Rain Light Rain
6:24 PM 66.2 °F 64.4 °F 94% 29.93 in 7.0 mi North 17.3 mph - 0.02 in Rain Light Rain
6:31 PM 66.2 °F 64.4 °F 94% 29.97 in 1.2 mi WNW 20.7 mph 28.8 mph 0.05 in Rain Heavy Rain
6:38 PM 66.2 °F 64.4 °F 94% 29.97 in 2.0 mi WNW 17.3 mph 28.8 mph 0.14 in Rain Heavy Rain
6:41 PM 64.4 °F 64.4 °F 100% 29.97 in 4.0 mi WNW 17.3 mph 25.3 mph 0.15 in Rain Rain
6:53 PM 64.0 °F 63.0 °F 96% 29.98 in 7.0 mi WNW 16.1 mph - 0.18 in Rain Light Rain
7:12 PM 64.4 °F 62.6 °F 94% 29.96 in 10.0 mi NNW 18.4 mph - 0.01 in Rain Light Rain
7:23 PM 64.4 °F 62.6 °F 94% 29.96 in 10.0 mi North 19.6 mph 27.6 mph 0.01 in Rain Light Rain
7:45 PM 64.4 °F 62.6 °F 94% 29.97 in 10.0 mi North 17.3 mph - 0.01 in   Mostly Cloudy
7:53 PM 64.0 °F 62.1 °F 93% 29.97 in 10.0 mi North 16.1 mph - 0.01 in Rain Light Rain
8:10 PM 64.4 °F 60.8 °F 88% 29.98 in 10.0 mi North 11.5 mph 24.2 mph 0.00 in Rain Light Rain
8:53 PM 64.0 °F 62.1 °F 93% 29.98 in 10.0 mi NNW 12.7 mph - 0.02 in Rain Light Rain
9:29 PM 64.4 °F 62.6 °F 94% 30.01 in 10.0 mi NW 11.5 mph - 0.00 in Rain Light Rain
9:53 PM 64.0 °F 62.1 °F 93% 30.01 in 7.0 mi North 9.2 mph 17.3 mph 0.11 in Rain Light Rain
10:27 PM 64.4 °F 62.6 °F 94% 30.01 in 10.0 mi NNW 8.1 mph - 0.03 in Rain Light Rain
10:43 PM 64.4 °F 62.6 °F 94% 30.01 in 10.0 mi NNW 8.1 mph - 0.03 in Rain Light Rain
10:53 PM 64.0 °F 62.1 °F 93% 30.01 in 10.0 mi North 10.4 mph - 0.03 in Rain Light Rain
11:06 PM 62.6 °F 60.8 °F 94% 30.01 in 10.0 mi North 12.7 mph - 0.00 in   Overcast
11:44 PM 64.4 °F 60.8 °F 88% 29.99 in 10.0 mi North 10.4 mph - 0.00 in   Overcast
11:53 PM 64.0 °F 61.0 °F 90% 29.99 in 10.0 mi North 10.4 mph - 0.00 in   Overcast